Home > Weather > Providence > Past weeks

Flag for USA Past Weather in Providence, Rhode Island, USA — Yesterday and Last 2 Weeks

Now
80 °F

Scattered clouds.


Feels Like: 81 °F
Forecast: 65 / 86 °F
Wind: 9 mph from South

Location: Green State Airport

Current Time: Jun 30, 2016 at 7:14:58 PM

Latest Report: Jun 30, 2016 at 5:51 PM


Visibility: 10 mi

Pressure: 29.96 "Hg

Humidity: 51%

Dew Point: 60 °F

Location of ProvidenceLocation

Past Weather in Providence — Graph

°F

Providence Temperature Yesterday

Maximum temperature yesterday: 79 °F (at 2:51 PM)
Minimum temperature yesterday: 68 °F (at 2:00 AM)
Average temperature yesterday: 73 °F

High & Low Weather Summary for the Past Weeks

 TemperatureHumidityPressure
High86 °F (Jun 21, 2:51 PM)97% (Jun 20, 4:51 AM)30.35 "Hg (Jun 20, 4:51 AM)
Low55 °F (Jun 18, 4:51 AM)23% (Jun 18, 1:51 PM)29.71 "Hg (Jun 21, 5:51 PM)
Average71 °F62%30.01 "Hg
* Reported Jun 15 4:51 PM — Jun 30 4:51 PM, Providence, Weather by CustomWeather, © 2016

Note: Actual official high and low records may vary slightly from our data, if they occured in-between our weather recording intervals... More about our weather records

Advertising

Providence Weather History for the Previous 24 Hours

Scroll right to see more
 ConditionsComfort  
Time TempWeatherWind HumidityBarometerVisibility
4:51 PM
Thu, Jun 30
80 °FScattered clouds.14 mph49%29.96 "Hg10 mi
3:51 PM80 °FScattered clouds.10 mph51%29.97 "Hg10 mi
2:51 PM83 °FScattered clouds.15 mph44%29.96 "Hg10 mi
1:51 PM82 °FScattered clouds.9 mph40%29.97 "Hg10 mi
12:51 PM83 °FScattered clouds.7 mph36%29.97 "Hg10 mi
11:51 AM84 °FPassing clouds.6 mph36%29.98 "Hg10 mi
10:51 AM80 °FPassing clouds.9 mph39%29.98 "Hg10 mi
9:51 AM78 °FSunny.10 mph42%29.98 "Hg10 mi
8:51 AM76 °FSunny.10 mph52%29.98 "Hg10 mi
7:51 AM73 °FSunny.10 mph59%29.97 "Hg10 mi
6:51 AM69 °FPassing clouds.6 mph70%29.95 "Hg10 mi
5:51 AM66 °FPassing clouds.7 mph75%29.94 "Hg10 mi
4:51 AM67 °FPassing clouds.3 mph73%29.92 "Hg10 mi
3:51 AM68 °FClear.5 mph70%29.90 "Hg10 mi
2:51 AM69 °FPassing clouds.5 mph70%29.89 "Hg10 mi
1:51 AM70 °FPassing clouds.6 mph81%29.90 "Hg10 mi
12:51 AM70 °FClear.5 mph87%29.89 "Hg10 mi
11:51 PM
Wed, Jun 29
71 °FPassing clouds.6 mph87%29.89 "Hg10 mi
10:51 PM72 °FClear.5 mph84%29.89 "Hg10 mi
9:51 PM71 °FPassing clouds.3 mph87%29.88 "Hg10 mi
8:51 PM71 °FSunny.5 mph90%29.86 "Hg10 mi
7:51 PM73 °FScattered clouds.6 mph84%29.85 "Hg10 mi
Weather by CustomWeather, © 2016

See weather overviewHow to use our weather pages